Weather History for West Palm Beach, FL

Change the Weather History Date:

Monday, April 21, 2014

  Actual Average Record
Temperature  
Mean Temperature 71 °F 74 °F  
Max Temperature 81 °F 82 °F 90 °F (1944)
Min Temperature 60 °F 67 °F 49 °F (1901)
Degree Days  
Heating Degree Days 0 0  
Month to date heating degree days 0 0  
Since 1 July heating degree days 122 229  
Cooling Degree Days 6 9  
Month to date cooling degree days 213 173  
Year to date cooling degree days 761 601  
Growing Degree Days 20 (Base 50)    
Moisture  
Dew Point 60 °F    
Average Humidity 71    
Maximum Humidity 90    
Minimum Humidity 51    
Precipitation  
Precipitation 0.00 in 0.12 in 1.86 in (1922)
Month to date precipitation 1.04 2.70  
Year to date precipitation 14.92 13.24  
Snow  
Snow 0.00 in - - ()
Month to date snowfall 0.0  
Since 1 July snowfall 0.0  
Snow Depth 0.00 in    
Sea Level Pressure  
Sea Level Pressure 29.99 in    
Wind  
Wind Speed 9 mph (NNW)    
Max Wind Speed 17 mph    
Max Gust Speed 26 mph    
Visibility 10 miles    
Events      
T = Trace of Precipitation, MM = Missing Value Source: NWS Daily Summary

Daily Weather History Graph

Daily Weather History Graph

Search for Another Location

Airport:

Trip Planner

Search our weather history database for the weather conditions in past years. The results will help you decide how hot, cold, wet, or windy it might be!

Date:

Astronomy

Apr. 21, 2014 Rise Set
Actual Time 6:50 AM EDT 7:47 PM EDT
Civil Twilight 6:26 AM EDT 8:11 PM EDT
Nautical Twilight 5:58 AM EDT 8:39 PM EDT
Astronomical Twilight 5:29 AM EDT 9:08 PM EDT
Moon 1:08 AM EDT (4/21) 12:22 PM EDT (4/21)
Length of Visible Light 13h 44m
Length of Day
12h 56m
Waning Gibbous, 58% of the Moon is Illuminated
Apr 21
Waning Gibbous
Apr 22
Last Quarter
Apr 29
New
May 6
First Quarter
May 14
Full

Hourly Weather History & Observations

Time (EDT) Temp. Heat Index Dew Point Humidity Pressure Visibility Wind Dir Wind Speed Gust Speed Precip Events Conditions
12:00 AM 68.0 °F - 60.1 °F 76% 30.04 in 10.0 mi North 10.4 mph - N/A   Scattered Clouds
12:53 AM 66.9 °F - 60.1 °F 79% 30.04 in 10.0 mi NNW 9.2 mph - N/A   Partly Cloudy
1:53 AM 64.0 °F - 59.0 °F 84% 30.02 in 10.0 mi NNW 10.4 mph - N/A   Scattered Clouds
2:53 AM 63.0 °F - 57.9 °F 84% 30.00 in 10.0 mi NW 9.2 mph - N/A   Partly Cloudy
3:53 AM 62.1 °F - 57.9 °F 86% 30.00 in 10.0 mi NW 9.2 mph - N/A   Partly Cloudy
4:53 AM 62.1 °F - 57.9 °F 86% 29.99 in 10.0 mi NW 8.1 mph - N/A   Partly Cloudy
5:53 AM 61.0 °F - 57.9 °F 90% 30.00 in 10.0 mi NW 9.2 mph - N/A   Partly Cloudy
6:53 AM 60.1 °F - 57.9 °F 93% 30.01 in 10.0 mi NW 8.1 mph - N/A   Scattered Clouds
7:53 AM 62.1 °F - 59.0 °F 90% 30.02 in 10.0 mi NW 9.2 mph - N/A   Mostly Cloudy
8:53 AM 66.9 °F - 60.1 °F 79% 30.02 in 10.0 mi NNW 10.4 mph - N/A   Mostly Cloudy
9:53 AM 70.0 °F - 60.1 °F 71% 30.02 in 10.0 mi WNW 9.2 mph - N/A   Mostly Cloudy
10:53 AM 73.0 °F - 60.1 °F 64% 30.02 in 10.0 mi NW 9.2 mph - N/A   Mostly Cloudy
11:53 AM 75.0 °F - 60.1 °F 60% 30.01 in 10.0 mi NW 10.4 mph - N/A   Mostly Cloudy
12:53 PM 78.1 °F - 59.0 °F 52% 30.00 in 10.0 mi NW 10.4 mph - N/A   Mostly Cloudy
1:53 PM 79.0 °F - 60.1 °F 52% 29.98 in 10.0 mi NW 9.2 mph - N/A   Mostly Cloudy
2:53 PM 81.0 °F 81.7 °F 61.0 °F 50% 29.96 in 10.0 mi NNW 5.8 mph 17.3 mph N/A   Mostly Cloudy
3:53 PM 77.0 °F - 63.0 °F 62% 29.93 in 10.0 mi NNE 13.8 mph 19.6 mph N/A   Scattered Clouds
4:53 PM 78.1 °F - 63.0 °F 60% 29.93 in 10.0 mi North 11.5 mph - N/A   Scattered Clouds
5:53 PM 78.1 °F - 62.1 °F 58% 29.93 in 10.0 mi NNE 11.5 mph - N/A   Scattered Clouds
6:53 PM 73.9 °F - 62.1 °F 66% 29.93 in 10.0 mi NNE 13.8 mph - N/A   Scattered Clouds
7:53 PM 72.0 °F - 61.0 °F 68% 29.93 in 10.0 mi NNE 11.5 mph - N/A   Scattered Clouds
8:53 PM 71.1 °F - 63.0 °F 75% 29.95 in 10.0 mi North 8.1 mph - N/A   Partly Cloudy
9:53 PM 69.1 °F - 64.0 °F 84% 29.96 in 10.0 mi NNW 9.2 mph - N/A   Partly Cloudy
10:53 PM 68.0 °F - 64.0 °F 87% 29.97 in 10.0 mi NW 5.8 mph - N/A   Scattered Clouds
11:53 PM 69.1 °F - 64.0 °F 84% 29.97 in 10.0 mi NW 5.8 mph - N/A   Mostly Cloudy